sat.trackr.live / text

‹ back to catalog

ONEWEB-0451

NORAD 51643 · 2022-012X

PAYLOAD ACTIVE UNKNOWN

§ Identity

Operator
Country
UK
Launch date
2022-02-10
Launch site
FRGUI
Launch vehicle
Mass (kg)
RCS (m²)

Purposes: comms

External: N2YO · Heavens-Above · Gunter

§ Orbital elements

Epoch: 2026-09-20T04:55:11.093664Z

Period
109.29 min
Inclination
87.9209°
Eccentricity
0.0002015
Mean motion
13.17648925 rev/d
Perigee alt
1,192.2 km
Apogee alt
1,195.2 km
Semi-major
7,571.9 km
B*
-1.7318e-5
RAAN
346.9842°
Arg perigee
104.9824°
Mean anomaly
255.1530°
Rev number
22,617

§ Raw data

ONEWEB-04511 51643U 22012X   26263.20498951  .00000006  00000+0 -17318-4 0  99932 51643  87.9209 346.9842 0002015 104.9824 255.1530 13.17648925226173

JSON: /api/v1/satellites/51643 · /tle

For live sub-satellite position, see the globe view (requires WebGL).

§ Visibility from observer

Set your observer location to see the next 7 days of passes ≥ 10°. The values pass through the URL so the page stays shareable.

No JS? Fill the form by hand. The geolocation button needs JavaScript.